TimeCDT,TemperatureF,Dew PointF,Humidity,Sea Level PressureIn,VisibilityMPH,Wind Direction,Wind SpeedMPH,Gust SpeedMPH,PrecipitationIn,Events,Conditions,WindDirDegrees,DateUTC
12:35 AM,60.8,55.4,82,29.96,10.0,NNE,4.6,-,N/A,,Clear,20,2012-09-30 05:35:00
12:55 AM,60.8,55.4,82,29.97,10.0,North,4.6,-,N/A,,Clear,10,2012-09-30 05:55:00
1:15 AM,60.8,55.4,82,29.97,10.0,North,4.6,-,N/A,,Clear,360,2012-09-30 06:15:00
1:36 AM,59.0,55.4,88,29.96,10.0,North,5.8,-,N/A,,Clear,360,2012-09-30 06:36:00
1:55 AM,59.0,55.4,88,29.96,10.0,North,5.8,-,N/A,,Clear,360,2012-09-30 06:55:00
2:55 AM,59.0,55.4,88,29.94,10.0,NNE,6.9,-,N/A,,Clear,20,2012-09-30 07:55:00
3:15 AM,59.0,55.4,88,29.93,10.0,NNE,6.9,-,N/A,,Clear,30,2012-09-30 08:15:00
3:35 AM,59.0,55.4,88,29.93,10.0,NNE,4.6,-,N/A,,Clear,20,2012-09-30 08:35:00
3:56 AM,59.0,55.4,88,29.93,10.0,NNE,4.6,-,N/A,,Clear,20,2012-09-30 08:56:00
4:15 AM,59.0,55.4,88,29.93,10.0,NNE,4.6,-,N/A,,Clear,20,2012-09-30 09:15:00
4:35 AM,59.0,55.4,88,29.93,10.0,Calm,Calm,-,N/A,,Clear,0,2012-09-30 09:35:00
5:15 AM,57.2,55.4,94,29.92,10.0,North,5.8,-,N/A,,Clear,10,2012-09-30 10:15:00
5:35 AM,57.2,55.4,94,29.92,10.0,North,5.8,-,N/A,,Clear,10,2012-09-30 10:35:00
5:55 AM,57.2,55.4,94,29.92,10.0,North,5.8,-,N/A,,Clear,360,2012-09-30 10:55:00
6:15 AM,57.2,55.4,94,29.92,10.0,North,4.6,-,N/A,,Clear,10,2012-09-30 11:15:00
6:35 AM,57.2,55.4,94,29.93,10.0,North,4.6,-,N/A,,Clear,350,2012-09-30 11:35:00
6:55 AM,57.2,55.4,94,29.93,10.0,North,5.8,-,N/A,,Clear,350,2012-09-30 11:55:00
7:35 AM,57.2,55.4,94,29.93,10.0,North,3.5,-,N/A,,Clear,350,2012-09-30 12:35:00
7:55 AM,57.2,55.4,94,29.94,10.0,North,5.8,-,N/A,,Clear,360,2012-09-30 12:55:00
8:36 AM,59.0,55.4,88,29.94,10.0,North,4.6,-,N/A,,Clear,360,2012-09-30 13:36:00
8:55 AM,60.8,55.4,82,29.94,10.0,North,4.6,-,N/A,,Clear,10,2012-09-30 13:55:00
9:15 AM,60.8,55.4,82,29.94,10.0,North,6.9,-,N/A,,Clear,10,2012-09-30 14:15:00
9:35 AM,60.8,57.2,88,29.94,10.0,NNE,6.9,-,N/A,,Clear,30,2012-09-30 14:35:00
9:55 AM,62.6,57.2,82,29.94,10.0,NNE,6.9,-,N/A,,Clear,30,2012-09-30 14:55:00
10:16 AM,62.6,57.2,82,29.94,10.0,NNE,5.8,-,N/A,,Clear,20,2012-09-30 15:16:00
10:35 AM,64.4,57.2,77,29.93,10.0,NNE,5.8,-,N/A,,Clear,30,2012-09-30 15:35:00
10:55 AM,64.4,57.2,77,29.93,10.0,NNE,4.6,-,N/A,,Clear,20,2012-09-30 15:55:00
11:35 AM,66.2,57.2,73,29.92,10.0,NE,4.6,-,N/A,,Clear,40,2012-09-30 16:35:00
11:55 AM,66.2,59.0,78,29.91,10.0,NNE,5.8,-,N/A,,Clear,30,2012-09-30 16:55:00
12:35 PM,68.0,59.0,73,29.91,10.0,NNE,5.8,-,N/A,,Clear,20,2012-09-30 17:35:00
1:15 PM,68.0,59.0,73,29.90,10.0,North,4.6,-,N/A,,Clear,10,2012-09-30 18:15:00
1:55 PM,68.0,59.0,73,29.87,10.0,NNE,8.1,-,N/A,,Clear,30,2012-09-30 18:55:00
2:15 PM,68.0,59.0,73,29.86,10.0,North,8.1,-,N/A,,Clear,10,2012-09-30 19:15:00
3:15 PM,69.8,59.0,68,29.83,10.0,NNE,10.4,-,N/A,,Clear,20,2012-09-30 20:15:00
3:35 PM,69.8,57.2,64,29.82,10.0,North,9.2,-,N/A,,Clear,10,2012-09-30 20:35:00
3:55 PM,69.8,57.2,64,29.82,10.0,NNE,8.1,-,N/A,,Clear,20,2012-09-30 20:55:00
3:56 PM,69.8,57.2,64,29.82,10.0,NNE,8.1,-,N/A,,Clear,30,2012-09-30 20:56:00
4:35 PM,68.0,59.0,73,29.82,10.0,NNE,4.6,-,N/A,,Clear,20,2012-09-30 21:35:00
5:15 PM,68.0,60.8,78,29.83,10.0,North,4.6,-,N/A,,Clear,360,2012-09-30 22:15:00
5:35 PM,68.0,60.8,78,29.83,10.0,North,5.8,-,N/A,,Clear,350,2012-09-30 22:35:00
5:55 PM,66.2,60.8,83,29.83,10.0,North,5.8,-,N/A,,Clear,360,2012-09-30 22:55:00
6:35 PM,66.2,60.8,83,29.82,10.0,NNE,5.8,-,N/A,,Clear,20,2012-09-30 23:35:00
6:55 PM,66.2,60.8,83,29.82,10.0,NNE,4.6,-,N/A,,Partly Cloudy,30,2012-09-30 23:55:00
7:16 PM,66.2,60.8,83,29.81,10.0,NNE,5.8,-,N/A,,Partly Cloudy,20,2012-10-01 00:16:00
7:35 PM,64.4,60.8,88,29.81,10.0,NNE,5.8,-,N/A,,Clear,30,2012-10-01 00:35:00
8:15 PM,64.4,59.0,83,29.82,10.0,North,4.6,-,N/A,,Clear,360,2012-10-01 01:15:00
8:35 PM,64.4,60.8,88,29.83,10.0,North,5.8,-,N/A,,Clear,350,2012-10-01 01:35:00
8:55 PM,64.4,60.8,88,29.83,10.0,North,4.6,-,N/A,,Clear,360,2012-10-01 01:55:00
9:15 PM,62.6,60.8,94,29.83,10.0,North,6.9,-,N/A,,Clear,360,2012-10-01 02:15:00
10:15 PM,64.4,59.0,83,29.81,10.0,North,6.9,-,N/A,,Clear,10,2012-10-01 03:15:00
10:35 PM,64.4,59.0,83,29.80,10.0,North,5.8,-,N/A,,Clear,10,2012-10-01 03:35:00
11:15 PM,62.6,60.8,94,29.81,10.0,NNW,6.9,-,N/A,,Clear,330,2012-10-01 04:15:00
11:35 PM,62.6,60.8,94,29.81,10.0,NNW,5.8,-,N/A,,Clear,340,2012-10-01 04:35:00